www.pogodaiklimat.ru

Погода и климат >> Архив погоды >> Украина >> Могилев-Подольский


ПОГОДА в Могилев-Подольском

  • Прогноз погоды в Могилев-Подольском
  • Монитор погоды в Могилев-Подольском
  • Климат города

АРХИВ ПОГОДЫ в Могилев-Подольском

Время (UTC), дата Ветер
(напр.,м/с)
 
Видим.   Явления Облачность Т
(С)
Тd
(С)
f
(%)
Тe
(С)
Тes
(С)
Комфортность P
(гПа)
Po
(гПа)
Тmin
(С)
Tmax
(С)
R
(мм)
R24
(мм)
S
(см)
00 20.09 В 1 10 км {гроза} 10/10 800 м
[Cb calv]
+15.1 +8.8 66 +16 +16 1014.4 1005.1
03 20.09 В 1 10 км 6/5 600 м
[Sc Ac trans]
+13.8 +8.6 71 +14 +14 1013.5 1004.2
06 20.09 ЮВ 1 20 км 8/3 600 м
[Sc Ac trans]
+15.2 +9.7 70 +16 +17 1012.9 1003.6 +13.5
09 20.09 С 1 20 км 4/3 600 м
[Cu Sc Ac trans]
+20.0 +7.8 45 +22 +29 комфорт 1012.1 1003.0
12 20.09 штиль 0 20 км 9/5 600 м
[Sc Ac trans]
+22.0 +10.3 47 +24 +26 комфорт 1011.4 1002.4
15 20.09 В 1 20 км {ливн. осадки} 8/4 600 м
[Cb calv Ac trans Ci fib]
+21.9 +12.0 53 +24 +25 комфорт 1009.3 1000.3
18 20.09 СЗ 1 10 км {ливн. осадки} 4/0 600 м
[Ac trans]
+17.0 +14.8 87 +18 +18 1008.6 999.4 +22.7 0.3
21 20.09 штиль 0 10 км 6/0
[Ac trans]
+15.8 +14.8 94 +16 +16 1007.6 998.4
00 21.09 ЮВ 1 10 км {гроза, ливн. осадки} 6/4 600 м
[Cb calv Ac trans]
+15.4 +14.3 93 +16 +16 1007.6 998.4
03 21.09 В 1 10 км 6/0 600 м
[Ac trans]
+14.6 +13.7 94 +15 +15 1007.6 998.4
06 21.09 штиль 0 200 м туман ?/? +14.0 +13.8 99 +14 +14 1007.6 998.4 +13.1 9
09 21.09 З 1 20 км {туман} 10/6 700 м
[Cb calv Ac und]
+17.8 +15.4 86 +19 +20 1007.3 998.2
12 21.09 З 1 20 км {туман} 10/5 600 м
[Cb calv Ac cuf]
+18.9 +15.9 83 +21 +23 комфорт 1007.5 998.4
15 21.09 С 1 20 км 5/5 600 м
[Cb cap]
+19.0 +16.2 84 +22 +22 комфорт 1007.1 998.0
18 21.09 штиль 0 10 км 8/8 750 м
[Cb cap]
+17.1 +15.8 92 +17 +17 1007.9 998.8 +20.0
21 21.09 штиль 0 10 км ясно +15.3 +14.4 94 +15 +15 1009.0 999.8
00 22.09 штиль 0 2000 м дымка 10/0
[Ac und]
+14.2 +13.6 96 +14 +14 1010.6 1001.3
03 22.09 СЗ 2 10 км 10/5 600 м
[Sc Ac und]
+15.6 +14.7 94 +15 +15 1010.2 1001.0
06 22.09 СЗ 2 4000 м слабый ливневой дождь 10/9 600 м
[Cb cap Ac und]
+15.8 +14.4 91 +16 +16 1010.9 1001.7 +14.0 4
09 22.09 З 1 4000 м слабый ливневой дождь 10/10 420 м
[Cb cap]
+15.3 +13.9 91 +16 +16 1011.2 1002.0
12 22.09 СВ 3 4000 м гроза, ливневой дождь 10/10 400 м
[Cb cap]
+15.1 +14.0 93 +14 +14 1010.3 1001.1
15 22.09 Ю 1 10 км гроза, ливневой дождь 10/8 420 м
[Cb cap Ac und]
+14.8 +13.9 94 +15 +15 1010.4 1001.2
18 22.09 ЮВ 1 10 км в посл. час ливневой дождь {гроза} 9/9 540 м
[Cb calv]
+15.0 +14.1 94 +15 +15 1009.2 1000.0 +15.9 39
21 22.09 штиль 0 10 км 10/3 600 м
[Cb calv Ac und]
+14.8 +13.9 94 +14 +14 1010.0 1000.8
00 23.09 ЮВ 2 10 км 10/6 660 м
[Sc Ac und]
+14.1 +13.0 93 +14 +14 1012.6 1003.3
03 23.09 ЮВ 2 10 км 9/9 630 м
[Sc]
+13.5 +11.9 90 +13 +13 1013.6 1004.3
06 23.09 ЮВ 2 20 км 6/0
[Ac trans]
+15.0 +11.7 81 +15 +16 1015.4 1006.1 +13.1
09 23.09 ЮВ 3 20 км 6/6 700 м
[Sc]
+17.4 +12.2 72 +17 +20 1017.2 1008.0
12 23.09 ЮВ 3 20 км 8/5 600 м
[Sc Ac trans]
+19.2 +12.4 65 +21 +22 комфорт 1017.4 1008.2
15 23.09 В 1 20 км 8/3 600 м
[Sc Ac trans]
+18.1 +12.2 68 +19 +20 1017.7 1008.5
18 23.09 штиль 0 10 км 10/5 600 м
[Sc Ac und]
+16.5 +14.2 86 +16 +16 1018.0 1008.7 +19.9
21 23.09 штиль 0 10 км в посл. час ливневой дождь 10/8 800 м
[Cb calv Ac und]
+14.8 +14.3 97 +14 +14 1018.7 1009.4
00 24.09 В 2 10 км {ливн. осадки} 10/4 600 м
[Cb calv Ac und]
+14.3 +12.8 91 +14 +14 1018.7 1009.4
03 24.09 В 2 10 км 10/5 600 м
[Cb calv Ac und]
+14.0 +12.5 91 +13 +13 1018.6 1009.2
06 24.09 штиль 0 20 км 10/8 800 м
[Cb calv Ac und]
+14.0 +12.9 93 +14 +14 1018.9 1009.5 +13.6 10
09 24.09 штиль 0 20 км {ливн. осадки} 8/5 600 м
[Cb calv Ac trans]
+16.0 +12.5 80 +16 +19 1019.0 1009.7
12 24.09 ЮВ 1 20 км в посл. час ливневой дождь 9/8 750 м
[Cb calv Ac cuf]
+15.0 +13.7 92 +15 +16 1019.3 1010.0
15 24.09 ЮВ 2 10 км гроза, ливневой дождь 10/8 720 м
[Cb calv Ac cuf]
+14.0 +10.7 80 +13 +13 1019.8 1010.4
18 24.09 штиль 0 10 км {гроза, ливн. осадки} 4/0 600 м
[Ac trans]
+12.1 +11.3 95 +11 +11 1021.1 1011.7 +16.1 8
21 24.09 штиль 0 2000 м дымка ясно +10.2 +9.5 95 +9 +9 1022.6 1013.1
00 25.09 штиль 0 200 м туман ?/? +9.4 +9.2 99 +8 +8 1023.3 1013.7
03 25.09 штиль 0 200 м туман ?/? +8.5 +8.2 98 +7 +7 1023.8 1014.2
06 25.09 штиль 0 500 м туман ?/? +9.3 +9.0 98 +8 +8 1024.7 1015.1 +8.3
09 25.09 штиль 0 20 км {туман} 8/5 600 м
[Sc Ac trans]
+14.8 +13.3 91 +14 +18 1025.6 1016.2
12 25.09 Ю 1 20 км {туман} 8/3 600 м
[Cu med, cong Ci fib]
+21.1 +12.4 58 +23 +28 комфорт 1025.7 1016.5
15 25.09 штиль 0 20 км 8/0
[Ci fib]
+20.9 +15.1 69 +24 +24 комфорт 1025.7 1016.5
18 25.09 штиль 0 10 км 8/3 600 м
[Sc Ac trans Ci fib]
+16.0 +14.2 89 +16 +16 1026.6 1017.2 +22.1
21 25.09 штиль 0 10 км {ливн. осадки} ясно +15.0 +13.9 93 +15 +15 1026.6 1017.2
00 26.09 штиль 0 10 км {ливн. осадки} ясно +12.6 +11.9 95 +12 +12 1027.0 1017.5
03 26.09 штиль 0 10 км 3/0
[Ac trans]
+11.0 +10.0 94 +10 +10 1027.6 1018.1
06 26.09 штиль 0 20 км 8/5 600 м
[Sc Ac trans]
+11.4 +10.0 91 +11 +11 1028.5 1019.0 +10.6 0.0
09 26.09 В 3 20 км 8/0
[Ac trans Ci fib]
+18.5 +7.6 49 +19 +24 1028.1 1018.8
12 26.09 В 3 20 км 8/0
[Ci fib]
+19.1 +6.8 45 +20 +24 1028.2 1018.9
15 26.09 В 3 20 км 10/0
[Ci]
+19.0 +6.7 45 +20 +20 1028.4 1019.1
18 26.09 СВ 1 10 км ясно +13.0 +8.4 74 +13 +13 1028.6 1019.1 +19.4

 

Местоположение метеостанции Могилев-Подольский (Винницкая область, Украина): широта 48.45 долгота 27.78 высота над уровнем моря 78 м.

В архиве по умолчанию представлена погода в Могилев-Подольском за последнюю неделю. Архивные данные за месяц целиком и за предыдущие месяцы, начиная с января 2011 года, Вы можете получить, выбрав интересующий диапазон дат из раскрывающегося списка и нажав кнопку "Ввод!".

Внимание! Время в таблицах - всемирное. Для получения местного времени необходимо прибавить поправку, которая в Могилев-Подольском равна 2 ч.

Смотрите также архив погоды в соседних городах и на ближайших метеорологических станциях:

Погода в Новоднестровске (Черновицкая область, Украина) (28 км)
Погода в Сороках (Молдова) (47 км)
Погода в Бричанах (Молдова) (53 км)
Погода в Новой Ушице (Хмельницкая область, Украина) (58 км)
Погода в Жмеринке (Винницкая область, Украина) (71 км)
Погода в Бельцах (Молдова) (76 км)
Погода в Stanca Stefanesti (Румыния) (81 км)
Погода в Каменке (Молдова) (83 км)
Погода в Каменец-Подольском (Хмельницкая область, Украина) (85 км)
Погода в Darabani (Румыния) (93 км)

Пояснения к столбцам:

Ветер - указаны скорость ветра в м/с - средняя за 10 мин, порывы в срок и между сроками (в фигурных скобках) и направление, откуда дует ветер: С - северный, СВ - северо-восточный, В - восточный, ЮВ - юго-восточный, Ю - южный, ЮЗ - юго-западный, З - западный, СЗ - северо-западный.
Видимость - горизонтальная дальность видимости в метрах или километрах. При видимости от 1 до 10 км при отсутствии осадков обычно наблюдается дымка, при ухудшении видимости до 1 км и менее - туман. В сухую погоду видимость может ухудшаться дымом, пылью или мглою.
Явления - указаны атмосферные явления, наблюдавшиеся в срок или в последний час перед сроком; фигурными скобками обозначены явления, наблюдавшиеся между сроками (за 1-3 часа до срока); квадратными скобками обозначены град или гололедные отложения с указанием их диаметра в мм.
Облачность - указаны через наклонную черту общая и нижняя облачность в баллах и высота нижней границы облаков в метрах; квадратными скобками обозначены формы облаков: Ci - перистые, Cs - перисто-слоистые, Cc - перисто-кучевые, Ac - высококучевые, As - высокослоистые, Sc - слоисто-кучевые, Ns - слоисто-дождевые, Cu - кучевые, Cb - кучево-дождевые. Подробнее классификацию облаков см. в Атласе облаков (PDF).
T - Температура воздуха - температура, измеренная на высоте 2 м над землей.
Td - Температура точки росы - температура, при понижении до которой содержащийся в воздухе водяной пар достигнет насыщения.
f - Относительная влажность воздуха - влажноcть воздуха, измеренная на высоте 2 м над землей.
Te - Эффективная температура - температура, которую ощущает одетый по сезону человек в тени. Характеристика душности погоды. При расчете учитывается влияние влажности воздуха и скорости ветра на теплоощущения человека.
Tes - Эффективная температура на солнце - температура, которую ощущает человек, с поправкой на солнечный нагрев. Характеристика знойности погоды. Зависит от высоты солнца над горизонтом, облачности и скорости ветра. Ночью, в пасмурную погоду, а также при ветре 12 м/с и более поправка равна нулю.
P - Атмосферное давление - приведенное к уровню моря атмосферное давление.
Po - Атмосферное давление - измеренное на уровне метеостанции атмосферное давление.
Tmin - Минимальная температура - минимум температуры воздуха на высоте 2 м над землей.
Tmax - Максимальная температура - максимум температуры воздуха на высоте 2 м над землей.
R - Количество осадков - Количество выпавших осадков за период времени, мм. При наведении курсора мыши на число - период времени, за который выпало указанное количество осадков.
R24 - Количество осадков - Количество выпавших осадков за 24 часа, мм.
S - Снежный покров - Высота снежного покрова, см. При наведении курсора мыши на число - состояние снежного покрова и степень покрытия местности в баллах.